Location: Baix
(44.7118°N, 4.7648°E)
Time: 03:38:19
(UTC+00:00)

USA 229 DEB - Pass Details

Date: 07 August 2020
Orbit: 971 x 1241 km, 63.4° (Epoch: 25 September)

Event Time Altitude Azimuth Distance (km) Brightness Sun altitude
Exits shadow 02:48:42 23° 209° (SSW) 1,986 4.5 -16.3°
Maximum altitude 02:52:59 80° 125° (SE) 1,040 3.6 -15.7°
Drops below altitude 10° 02:59:49 10° 39° (NE) 2,907 7.4 -14.9°
Sets 03:02:33 0° 39° (NE) 3,906 8.4 -14.5°
